Change the Weather History Date:

Monday, December 2, 2013

  Actual Average Record
Temperature  
Mean Temperature 30 °F -  
Max Temperature 37 °F 28 °F 59 °F (1998)
Min Temperature 24 °F 12 °F -17 °F (1976)
Degree Days  
Heating Degree Days 34    
Moisture  
Dew Point 32 °F    
Average Humidity 96    
Maximum Humidity 100    
Minimum Humidity 81    
Precipitation  
Precipitation 0.00 in - - ()
Sea Level Pressure  
Sea Level Pressure 29.65 in    
Wind  
Wind Speed 7 mph (ESE)    
Max Wind Speed 14 mph    
Max Gust Speed 17 mph    
Visibility 4 miles    
Events Rain , Snow    
Averages and records for this station are not official NWS values.
T = Trace of Precipitation, MM = Missing Value Source: NWS Daily Summary

Daily Weather History Graph

Daily Weather History Graph

Search for Another Location

Airport or City:

Trip Planner

Search our weather history database for the weather conditions in past years. The results will help you decide how hot, cold, wet, or windy it might be!

Date:

Astronomy

Dec. 02, 2013 Rise Set
Actual Time 7:37 AM CST 4:37 PM CST
Civil Twilight 7:04 AM CST 5:10 PM CST
Nautical Twilight 6:27 AM CST 5:47 PM CST
Astronomical Twilight 5:52 AM CST 6:22 PM CST
Moon 7:02 AM CST (12/2) 4:42 PM CST (12/2)
Length of Visible Light 10h 05m
Length of Day
8h 59m
Waning Crescent, 0% of the Moon is Illuminated
Dec 2
Waning Crescent
Dec 2
New
Dec 9
First Quarter
Dec 17
Full
Dec 25
Last Quarter

Hourly Weather History & Observations

Time (CST) Temp. Windchill Dew Point Humidity Pressure Visibility Wind Dir Wind Speed Gust Speed Precip Events Conditions
12:13 AM 28.4 °F 21.2 °F 26.6 °F 93% 29.87 in 7.0 mi ESE 6.9 mph - N/A   Overcast
12:32 AM 28.4 °F 20.4 °F 26.6 °F 93% 29.86 in 7.0 mi SE 8.1 mph - N/A   Overcast
12:53 AM 28.4 °F 23.3 °F 26.6 °F 93% 29.85 in 7.0 mi SE 4.6 mph - N/A   Overcast
1:12 AM 28.4 °F 23.3 °F 26.6 °F 93% 29.85 in 7.0 mi SE 4.6 mph - N/A   Overcast
1:33 AM 30.2 °F 24.3 °F 26.6 °F 86% 29.85 in 5.0 mi ESE 5.8 mph - N/A Snow Light Snow
1:53 AM 28.4 °F 22.2 °F 26.6 °F 93% 29.84 in 7.0 mi SE 5.8 mph - N/A   Overcast
2:12 AM 28.4 °F 22.2 °F 26.6 °F 93% 29.83 in 5.0 mi ESE 5.8 mph - N/A   Overcast
2:33 AM 28.4 °F 23.3 °F 26.6 °F 93% 29.83 in 7.0 mi SE 4.6 mph - N/A   Overcast
2:52 AM 28.4 °F 21.2 °F 26.6 °F 93% 29.82 in 5.0 mi ESE 6.9 mph - N/A   Mostly Cloudy
3:13 AM 26.6 °F 21.2 °F 24.8 °F 93% 29.81 in 5.0 mi ESE 4.6 mph - N/A   Mist
3:33 AM 24.8 °F 17.9 °F 24.8 °F 100% 29.80 in 5.0 mi ESE 5.8 mph - N/A   Mist
3:52 AM 26.6 °F 17.5 °F 26.6 °F 100% 29.77 in 5.0 mi East 9.2 mph - N/A   Scattered Clouds
4:13 AM 28.4 °F 21.2 °F 26.6 °F 93% 29.76 in 5.0 mi ESE 6.9 mph - N/A   Overcast
4:33 AM 28.4 °F 21.2 °F 28.4 °F 100% 29.76 in 7.0 mi SE 6.9 mph - N/A   Overcast
4:52 AM 28.4 °F 22.2 °F 26.6 °F 93% 29.76 in 7.0 mi SE 5.8 mph - N/A   Overcast
5:13 AM 30.2 °F 25.4 °F 28.4 °F 93% 29.75 in 7.0 mi SE 4.6 mph - N/A   Overcast
5:33 AM 30.2 °F 23.4 °F 28.4 °F 93% 29.74 in 3.0 mi ESE 6.9 mph - N/A Snow Light Snow
5:52 AM 30.2 °F 23.4 °F 28.4 °F 93% 29.73 in 7.0 mi SE 6.9 mph - N/A   Mostly Cloudy
6:13 AM 30.2 °F 23.4 °F 28.4 °F 93% 29.72 in 7.0 mi ESE 6.9 mph - N/A   Overcast
6:33 AM 28.4 °F 20.4 °F 28.4 °F 100% 29.72 in 5.0 mi ESE 8.1 mph - N/A   Scattered Clouds
6:52 AM 30.2 °F 21.9 °F 28.4 °F 93% 29.72 in 5.0 mi SE 9.2 mph - N/A   Scattered Clouds
7:13 AM 30.2 °F 23.4 °F 28.4 °F 93% 29.71 in 5.0 mi SE 6.9 mph - N/A   Mostly Cloudy
7:33 AM 30.2 °F 21.9 °F 30.2 °F 100% 29.70 in 5.0 mi SE 9.2 mph - N/A   Mostly Cloudy
7:52 AM 30.2 °F 21.9 °F 30.2 °F 100% 29.69 in 7.0 mi SE 9.2 mph - N/A   Scattered Clouds
8:13 AM 32.0 °F 24.8 °F 30.2 °F 93% 29.69 in 5.0 mi SE 8.1 mph - N/A   Scattered Clouds
8:33 AM 33.8 °F 26.4 °F 30.2 °F 87% 29.68 in 5.0 mi SE 9.2 mph - N/A   Mostly Cloudy
8:52 AM 33.8 °F 25.8 °F 30.2 °F 87% 29.68 in 5.0 mi SE 10.4 mph - N/A   Scattered Clouds
9:13 AM 33.8 °F 25.8 °F 30.2 °F 87% 29.67 in 5.0 mi SE 10.4 mph - N/A   Scattered Clouds
9:32 AM 35.6 °F 28.0 °F 30.2 °F 81% 29.67 in 5.0 mi ESE 10.4 mph - N/A   Clear
9:53 AM 35.6 °F 27.1 °F 30.2 °F 81% 29.66 in 5.0 mi SE 12.7 mph - N/A   Scattered Clouds
10:13 AM 35.6 °F 28.6 °F 30.2 °F 81% 29.66 in 5.0 mi SE 9.2 mph - N/A   Mostly Cloudy
10:32 AM 35.6 °F 29.2 °F 32.0 °F 87% 29.67 in 5.0 mi SE 8.1 mph - N/A   Mostly Cloudy
10:53 AM - - - N/A% 2.96 in 1.8 mi SE 9.2 mph - N/A   Unknown
11:13 AM - - - N/A% - 4.0 mi Calm Calm - N/A Rain Light Rain
11:32 AM 35.6 °F 27.1 °F 33.8 °F 93% - 4.0 mi ESE 12.7 mph - N/A Rain Light Rain
11:53 AM 35.6 °F 27.5 °F 33.8 °F 93% 29.61 in 4.0 mi ESE 11.5 mph - N/A   Light Drizzle
12:13 PM 35.6 °F 27.1 °F 35.6 °F 100% 29.61 in 4.0 mi ESE 12.7 mph - N/A   Mostly Cloudy
12:32 PM 37.4 °F 28.9 °F 35.6 °F 93% 29.59 in 5.0 mi ESE 13.8 mph - N/A Rain Light Rain
12:53 PM 35.6 °F 26.6 °F 35.6 °F 100% 29.59 in 4.0 mi ESE 13.8 mph - N/A   Drizzle
1:13 PM 35.6 °F 28.6 °F 35.6 °F 100% 29.59 in 3.0 mi SE 9.2 mph - N/A Rain Light Rain
1:32 PM 33.8 °F 26.4 °F 33.8 °F 100% 29.58 in 0.8 mi ESE 9.2 mph - N/A Snow Light Snow
1:53 PM 33.8 °F 26.4 °F 33.8 °F 100% 29.57 in 1.0 mi ESE 9.2 mph - N/A Snow Light Snow
2:13 PM 33.8 °F 25.8 °F 33.8 °F 100% 29.56 in 1.0 mi East 10.4 mph - N/A Snow Light Snow
2:32 PM 33.8 °F 25.8 °F 33.8 °F 100% 29.55 in 0.8 mi East 10.4 mph - N/A   Overcast
2:53 PM 33.8 °F 24.3 °F 33.8 °F 100% 29.54 in 1.0 mi East 13.8 mph - N/A   Overcast
3:13 PM 33.8 °F 24.3 °F 33.8 °F 100% 29.54 in 1.2 mi East 13.8 mph - N/A   Drizzle
3:32 PM 33.8 °F 24.8 °F 33.8 °F 100% 29.54 in 1.2 mi ESE 12.7 mph - N/A   Light Drizzle
3:53 PM 33.8 °F 24.8 °F 33.8 °F 100% 29.55 in 2.0 mi ESE 12.7 mph 17.3 mph N/A   Light Drizzle
4:13 PM 33.8 °F 26.4 °F 33.8 °F 100% 29.56 in 2.5 mi ESE 9.2 mph - N/A   Overcast
4:33 PM 35.6 °F 27.1 °F 35.6 °F 100% 29.55 in 3.0 mi ESE 12.7 mph 16.1 mph N/A   Overcast
4:52 PM 35.6 °F 28.6 °F 35.6 °F 100% 29.56 in 2.5 mi SE 9.2 mph - N/A   Overcast
5:13 PM 35.6 °F 26.6 °F 35.6 °F 100% 29.54 in 2.0 mi ESE 13.8 mph - N/A   Overcast
5:32 PM 33.8 °F 26.4 °F 33.8 °F 100% 29.55 in 2.0 mi ESE 9.2 mph - N/A   Overcast
5:53 PM 35.6 °F 28.0 °F 35.6 °F 100% 29.56 in 2.0 mi SE 10.4 mph - N/A   Overcast
6:13 PM 35.6 °F 28.6 °F 35.6 °F 100% 29.56 in 2.0 mi SE 9.2 mph - N/A   Overcast
6:33 PM 35.6 °F 29.2 °F 35.6 °F 100% 29.56 in 2.0 mi SE 8.1 mph - N/A   Overcast
6:52 PM 35.6 °F 29.2 °F 35.6 °F 100% 29.56 in 2.0 mi ESE 8.1 mph - N/A   Overcast
7:13 PM 35.6 °F 29.9 °F 35.6 °F 100% 29.56 in 2.0 mi ESE 6.9 mph - N/A   Overcast
7:33 PM 35.6 °F 29.9 °F 35.6 °F 100% 29.55 in 2.0 mi ESE 6.9 mph - N/A   Overcast
7:52 PM 35.6 °F 29.9 °F 35.6 °F 100% 29.56 in 2.0 mi SE 6.9 mph - N/A   Overcast
8:13 PM 35.6 °F 29.9 °F 35.6 °F 100% 29.56 in 2.0 mi SE 6.9 mph - N/A   Overcast
8:33 PM 35.6 °F 30.7 °F 35.6 °F 100% 29.56 in 2.0 mi ESE 5.8 mph - N/A   Overcast
8:52 PM 35.6 °F 29.9 °F 35.6 °F 100% 29.55 in 2.0 mi ESE 6.9 mph - N/A   Overcast
9:13 PM 35.6 °F 30.7 °F 35.6 °F 100% 29.55 in 2.0 mi ESE 5.8 mph - N/A   Overcast
9:33 PM 35.6 °F 29.9 °F 35.6 °F 100% 29.54 in 1.8 mi East 6.9 mph - N/A   Overcast
9:52 PM 35.6 °F - 35.6 °F 100% 29.56 in 1.8 mi Calm Calm - N/A   Overcast
10:13 PM 35.6 °F - 35.6 °F 100% 29.56 in 1.8 mi Calm Calm - N/A   Mist
10:33 PM 35.6 °F - 35.6 °F 100% 29.57 in 1.8 mi Calm Calm - N/A   Mist
10:52 PM 35.6 °F - 35.6 °F 100% 29.57 in 1.8 mi Calm Calm - N/A   Mist
11:13 PM 35.6 °F - 35.6 °F 100% 29.57 in 1.5 mi Calm Calm - N/A   Mist
11:33 PM 35.6 °F - 35.6 °F 100% 29.57 in 1.2 mi Calm Calm - N/A   Mist
11:52 PM 35.6 °F - 35.6 °F 100% 29.56 in 1.2 mi Calm Calm - N/A   Mist